Date,TemperatureHighF,TemperatureAvgF,TemperatureLowF,DewpointHighF,DewpointAvgF,DewpointLowF,HumidityHigh,HumidityAvg,HumidityLow,PressureMaxIn,PressureMinIn,WindSpeedMaxMPH,WindSpeedAvgMPH,GustSpeedMaxMPH,PrecipitationSumIn
2013-1-1,18.3,2.7,-14.4,12.0,-4.9,-21.7,76,70,61,30.22,29.71,6,0,6,0.00
2013-1-2,22.5,19.1,16.5,15.2,12.9,10.0,80,77,71,29.75,29.64,8,1,9,0.00
2013-1-3,21.9,16.3,9.9,17.0,9.2,2.0,81,73,62,29.91,29.70,13,2,16,0.00
2013-1-4,30.9,18.7,8.6,19.2,11.5,2.6,81,74,61,29.81,29.67,9,1,12,0.00
2013-1-5,25.7,14.9,3.9,17.4,8.6,-2.0,80,76,66,29.78,29.53,10,0,12,0.00
2013-1-6,23.7,16.5,7.2,16.1,9.1,0.6,80,72,60,29.88,29.68,10,1,14,0.00
2013-1-7,36.7,27.0,14.7,26.4,19.6,9.3,82,74,63,29.68,29.54,10,2,10,0.00
2013-1-8,38.5,24.7,9.0,28.1,18.2,3.5,83,76,65,29.67,29.43,9,1,12,0.00
2013-1-9,33.8,28.2,17.8,25.9,20.0,12.7,81,71,60,30.02,29.55,18,3,25,0.00
2013-1-10,44.2,31.4,16.3,29.8,23.0,11.3,84,72,51,29.99,29.44,10,1,11,0.19
2013-1-11,39.9,36.8,34.2,35.9,32.9,29.8,88,86,83,29.44,29.05,7,0,7,0.00
2013-1-12,39.0,18.2,5.7,35.8,10.6,-1.4,88,72,61,29.75,29.05,17,5,20,0.00
2013-1-13,10.0,5.2,1.0,1.3,-2.0,-4.7,77,72,65,29.89,29.72,9,0,10,0.00
2013-1-14,12.0,4.8,-1.8,3.4,-2.1,-7.8,77,73,62,30.07,29.89,8,0,13,0.00
2013-1-15,26.4,15.7,4.6,15.0,7.9,-1.0,80,71,56,29.95,29.47,13,1,13,0.00
2013-1-16,33.8,24.1,9.1,26.7,13.4,-5.0,82,64,45,29.93,29.31,21,6,26,0.00
2013-1-17,15.3,9.8,3.0,3.9,-1.1,-5.1,74,61,52,30.06,29.93,14,2,16,0.00
2013-1-18,39.9,23.2,10.8,28.2,15.9,4.1,82,74,62,29.97,29.40,12,1,13,0.00
2013-1-19,37.2,20.0,1.2,27.5,11.8,-7.5,85,71,54,29.87,29.37,29,6,35,0.00
2013-1-20,6.6,0.4,-5.1,-4.9,-8.9,-14.1,70,64,54,30.07,29.86,18,4,23,0.00
2013-1-21,-4.7,-8.9,-13.7,-14.4,-19.2,-23.0,65,60,53,30.02,29.93,17,4,22,0.00
2013-1-22,3.6,-7.4,-17.7,-9.0,-16.5,-25.3,69,64,54,30.35,29.96,12,1,13,0.00
2013-1-23,14.9,3.5,-8.7,3.5,-7.3,-19.8,72,60,47,30.60,30.18,31,6,36,0.00
2013-1-24,9.3,0.1,-9.8,-0.7,-10.9,-20.0,63,59,53,30.65,30.15,10,1,13,0.00
2013-1-25,17.8,12.7,3.4,10.1,2.8,-4.8,75,64,54,30.28,29.89,23,6,24,0.00
2013-1-26,21.0,9.8,-5.8,10.1,0.0,-12.5,73,64,52,30.33,30.12,12,1,14,0.00
2013-1-27,35.4,26.2,16.9,24.9,18.0,8.1,83,71,57,30.12,29.81,13,1,13,0.00
2013-1-28,37.2,30.8,25.3,30.0,25.8,20.6,86,81,74,29.90,29.64,0,0,0,0.02
2013-1-29,38.1,31.8,25.2,30.2,25.7,17.1,86,78,69,29.75,29.52,22,5,24,0.09
2013-1-30,25.0,16.4,9.3,16.6,7.7,0.6,77,68,60,29.74,29.64,25,11,32,0.00
2013-1-31,9.3,2.3,-9.0,0.6,-7.3,-18.6,73,64,54,30.22,29.72,26,8,29,0.00
2013-2-1,6.6,-5.2,-17.1,-6.8,-14.7,-24.8,71,63,51,30.29,30.06,9,1,13,0.00
2013-2-2,13.8,4.6,-8.0,1.4,-4.3,-14.9,74,66,53,30.16,29.96,8,0,11,0.00
2013-2-3,15.5,9.5,1.9,2.6,0.0,-4.7,73,65,54,30.05,29.95,13,2,19,0.00
2013-2-4,18.1,9.0,-3.3,4.5,-2.8,-12.3,70,58,46,30.06,29.72,13,1,13,0.02
2013-2-5,25.9,18.0,0.0,18.3,9.1,-7.5,78,68,54,30.06,29.63,22,4,25,0.23
2013-2-6,23.2,14.4,-1.1,16.8,7.5,-8.0,78,74,69,30.08,29.95,9,1,12,0.05
2013-2-7,28.8,24.7,22.3,19.5,18.3,16.7,83,77,66,30.25,30.01,17,6,23,0.09
2013-2-8,31.2,16.8,3.0,16.8,8.5,-3.1,80,70,53,30.36,30.22,13,0,13,0.14
2013-2-9,32.9,27.1,12.9,25.0,21.0,7.1,84,77,70,30.22,29.94,14,3,19,0.00
2013-2-10,32.5,28.6,25.5,28.2,24.3,21.1,86,84,81,29.94,29.31,15,1,17,0.00
2013-2-11,30.7,25.7,17.2,27.0,18.2,9.8,86,73,61,30.00,29.33,21,3,26,0.00
2013-2-12,33.4,21.3,7.0,21.8,13.5,1.6,80,72,59,30.00,29.77,16,2,16,0.00
2013-2-13,37.0,29.5,22.3,27.3,22.9,15.7,85,76,62,29.77,29.59,8,0,8,0.00
2013-2-14,32.2,24.9,12.9,26.8,14.1,0.4,85,65,40,30.14,29.61,21,5,32,0.00
2013-2-15,17.6,10.6,1.2,2.1,-0.8,-7.2,70,59,49,30.27,30.13,16,4,22,0.00
2013-2-16,19.2,6.9,-6.5,5.6,-2.6,-14.0,74,65,53,30.22,30.10,9,0,9,0.00
2013-2-17,30.4,16.0,-7.8,16.6,6.5,-15.3,74,66,53,30.10,29.64,18,2,20,0.00
2013-2-18,33.8,23.5,9.3,25.5,15.1,-0.1,76,70,63,29.77,29.51,31,6,35,0.00
2013-2-19,10.2,4.6,-0.2,-0.6,-6.6,-10.4,69,59,49,30.32,29.77,29,13,37,0.00
2013-2-20,16.0,4.7,-6.0,2.1,-5.2,-12.9,71,63,52,30.44,30.32,9,1,14,0.00
2013-2-21,25.2,12.0,-8.0,14.3,2.2,-15.4,75,65,49,30.46,30.11,18,3,22,0.00
2013-2-22,33.6,24.3,13.6,22.2,16.9,8.1,81,73,60,30.11,29.84,15,4,20,0.00
2013-2-23,38.8,27.4,13.3,25.3,19.0,7.7,82,71,55,29.93,29.81,9,1,10,0.00
2013-2-24,43.0,23.3,7.5,25.1,14.4,2.1,80,70,47,30.09,29.93,6,0,7,0.00
2013-2-25,40.3,23.5,8.4,23.9,14.4,2.4,79,69,50,30.10,30.03,3,0,7,0.00
2013-2-26,39.4,25.4,10.8,25.7,17.0,5.0,82,71,56,30.07,29.90,20,4,21,0.00
2013-2-27,28.6,27.7,27.0,22.0,21.0,20.2,77,76,72,29.91,29.89,16,5,17,0.00
2013-3-4,24.4,24.1,23.9,18.8,18.4,18.0,80,79,76,30.05,30.03,0,0,0,0.00
2013-3-5,32.6,25.2,18.7,23.6,18.7,12.7,82,76,66,30.28,29.99,20,2,20,0.00
2013-3-6,31.0,18.5,3.4,17.2,10.4,-3.0,82,71,55,30.40,30.28,17,2,20,0.00
2013-3-7,36.7,14.9,-3.3,19.9,5.2,-10.1,76,66,49,30.39,30.27,3,0,9,0.00
2013-3-8,41.2,24.5,7.3,26.7,16.0,1.0,80,71,55,30.32,30.08,9,0,10,0.00
2013-3-9,37.6,34.0,24.6,32.3,29.2,19.0,86,82,75,30.09,29.69,9,0,13,0.00
2013-3-10,34.9,32.7,28.6,30.0,25.8,20.7,87,76,69,29.98,29.79,32,12,32,0.00
2013-3-11,34.3,27.8,23.6,23.1,19.4,17.4,77,71,55,29.90,29.73,24,8,24,0.00
2013-3-12,31.7,23.5,17.4,17.1,12.7,6.4,79,64,45,30.16,29.80,30,8,32,0.00
2013-3-13,33.6,23.3,16.0,13.7,10.3,5.5,66,58,42,30.29,30.16,13,1,14,0.00
2013-3-14,43.9,30.1,20.8,28.1,20.5,11.6,79,68,53,30.23,30.00,7,0,9,0.00
2013-3-15,37.2,31.3,26.4,28.0,24.8,20.8,84,77,65,30.00,29.93,17,1,17,0.00
2013-3-16,26.1,19.8,9.7,11.6,7.2,-1.4,71,58,49,30.22,30.08,18,5,19,0.00
2013-3-17,31.5,15.0,-3.6,11.7,2.3,-11.0,72,58,43,30.26,29.89,17,2,17,0.00
2013-3-18,28.6,22.3,12.2,22.9,13.3,3.0,80,68,55,29.89,29.58,24,9,24,0.00
2013-3-19,26.4,13.7,6.1,8.2,1.3,-6.3,70,58,43,30.14,29.74,23,9,26,0.00
2013-3-20,24.6,13.0,3.4,6.3,-1.1,-7.8,61,53,44,30.16,30.06,28,8,30,0.00
2013-3-21,29.1,13.7,-2.9,11.4,2.0,-10.6,73,60,46,30.11,30.03,15,2,15,0.00
2013-3-22,37.9,19.6,-0.6,18.5,7.5,-7.7,74,60,43,30.08,30.02,5,0,8,0.00
2013-3-23,45.0,29.1,16.0,23.8,15.5,8.4,73,58,39,30.16,30.05,6,0,7,0.07
2013-3-24,36.3,30.3,25.3,22.4,18.5,15.8,67,61,53,30.09,29.99,26,5,26,0.00
2013-3-25,39.0,29.0,18.0,19.8,15.8,10.1,72,58,44,30.18,30.04,26,6,26,0.00
2013-3-26,41.3,34.1,30.6,19.9,18.4,17.5,60,52,42,30.27,30.18,13,1,13,0.00
2013-3-27,50.5,36.0,22.8,26.4,19.4,13.8,68,52,35,30.32,30.27,6,0,8,0.00
2013-3-28,46.8,30.5,14.7,24.2,17.5,8.8,79,60,40,30.34,30.26,5,0,8,0.00
2013-3-29,52.5,35.8,19.9,32.9,24.0,13.9,78,63,46,30.28,30.07,12,1,15,0.00
2013-3-30,51.8,41.9,35.4,39.7,33.9,28.3,85,74,60,30.07,29.82,16,2,16,0.00
2013-3-31,39.4,32.9,22.9,30.0,20.5,10.3,81,62,40,30.06,29.77,37,11,41,0.00
2013-4-1,34.3,24.7,15.6,16.1,10.9,6.6,68,56,44,30.22,30.07,26,9,26,0.00
2013-4-2,36.6,26.1,14.7,17.3,11.9,7.6,74,56,39,30.34,30.21,23,3,23,0.00
2013-4-3,46.0,30.6,11.1,27.5,17.9,4.9,79,61,41,30.38,30.01,21,4,24,0.00
2013-4-4,46.9,40.3,29.8,30.8,25.4,16.9,72,56,38,30.17,29.95,30,8,30,0.00
2013-4-5,48.0,33.9,21.0,26.4,19.0,11.8,75,55,38,30.24,29.94,14,2,14,0.00
2013-4-6,51.8,37.9,33.4,33.1,29.2,25.8,82,71,47,29.94,29.55,21,4,21,0.00
2013-4-7,48.6,39.3,34.2,33.6,30.3,28.2,81,71,55,29.94,29.73,14,1,14,0.25
2013-4-8,45.0,38.6,35.8,37.5,33.3,30.2,86,81,74,30.07,29.72,0,0,0,0.00
2013-4-9,45.1,37.4,33.1,31.9,26.4,20.2,81,65,48,30.19,30.01,0,0,0,0.00
2013-4-10,41.7,36.0,31.1,22.9,19.8,17.0,62,52,40,30.20,29.96,0,0,0,0.00
2013-4-11,35.6,32.0,28.6,27.1,22.4,16.2,82,69,47,29.98,29.73,0,0,0,0.00
2013-4-12,43.3,32.2,27.5,29.3,24.0,21.6,83,72,53,29.84,29.69,0,0,0,0.00
2013-4-13,43.8,32.0,20.5,24.3,20.4,13.8,82,64,40,29.96,29.82,0,0,0,0.00
2013-4-14,39.9,28.6,18.7,36.7,22.7,13.1,89,79,56,29.97,29.52,14,1,14,0.00
2013-4-15,42.2,35.8,31.8,38.0,32.2,28.9,89,87,83,29.92,29.51,31,2,21,0.00
2013-4-16,49.3,39.9,27.1,36.2,29.0,21.1,83,66,45,30.32,29.93,16,3,16,0.00
2013-4-17,41.2,35.2,26.2,28.8,26.0,20.6,85,70,59,30.34,29.95,25,4,25,0.00
2013-4-18,33.8,31.7,29.8,28.9,27.5,25.9,87,84,77,29.96,29.49,0,0,0,0.00
2013-4-19,39.1,32.9,27.7,27.3,22.0,9.6,87,66,45,29.91,29.47,12,2,19,0.00
2013-4-20,43.7,31.2,16.0,19.1,9.9,1.8,55,42,22,30.24,29.91,5,1,9,0.00
2013-4-21,45.9,37.2,26.2,41.9,30.1,11.0,98,77,51,30.24,29.97,7,2,13,0.08
2013-4-22,47.0,38.4,32.5,39.9,30.2,22.8,98,76,44,30.18,30.06,8,3,18,1.36
2013-4-23,44.1,36.1,29.3,32.0,23.6,13.9,98,64,35,30.12,30.00,10,5,21,0.37
2013-4-24,49.6,36.3,26.4,34.1,27.4,17.3,89,71,42,30.03,29.85,11,4,24,0.00
2013-4-25,53.1,40.6,30.4,31.7,27.9,20.3,95,64,39,30.15,29.91,8,4,18,0.04
2013-4-26,69.6,54.0,37.8,44.3,36.6,27.3,78,54,32,30.09,29.94,11,5,22,0.00
2013-4-27,77.7,56.6,33.1,45.0,35.8,28.4,86,52,21,30.12,29.85,9,3,21,0.00
2013-4-28,82.2,63.5,46.4,56.8,47.1,41.5,86,58,32,29.85,29.65,16,7,38,0.04
2013-4-29,79.3,61.0,45.5,48.1,40.8,31.0,74,50,26,29.83,29.56,10,5,22,0.00
2013-4-30,72.3,63.3,55.0,59.8,44.5,15.7,88,55,15,29.91,29.41,19,10,42,0.00
2013-5-1,55.6,43.1,35.8,34.1,28.6,23.7,91,58,44,30.44,29.91,14,7,23,0.05
2013-5-2,46.9,40.0,36.0,26.1,24.0,21.4,66,53,43,30.50,29.53,15,9,28,0.00
2013-5-3,37.4,34.2,31.3,33.2,28.8,20.5,98,81,53,30.42,30.18,10,6,24,0.04
2013-5-4,47.7,38.4,32.7,40.1,35.2,31.0,98,89,73,30.21,30.15,10,6,20,0.17
2013-5-5,67.1,50.2,37.0,46.1,40.3,35.0,95,72,45,30.21,30.09,8,4,15,0.00
2013-5-6,79.2,58.6,40.1,51.3,43.4,37.1,90,61,34,30.15,30.03,6,2,10,0.00
2013-5-7,84.4,64.2,43.7,55.1,45.2,37.3,91,56,26,30.09,29.97,7,2,13,0.00
2013-5-8,79.3,63.1,48.6,56.7,47.9,40.5,86,61,34,30.06,29.97,12,2,24,0.00
2013-5-9,58.3,50.7,41.0,55.5,44.9,26.2,98,82,52,30.15,30.00,11,6,23,0.04
2013-5-10,67.5,50.9,33.1,34.9,27.8,-6.6,75,46,5,30.15,29.88,8,4,16,0.00
2013-5-11,56.8,45.4,38.1,39.0,25.7,17.6,63,47,36,30.18,29.88,21,13,36,0.00
2013-5-12,58.8,44.6,32.2,26.9,14.5,-10.8,59,36,6,30.21,30.09,14,6,23,0.00
2013-5-13,69.6,51.0,27.7,41.6,30.4,15.0,65,47,27,30.12,29.68,9,4,18,0.00
2013-5-14,93.2,68.1,41.0,56.1,38.8,-16.4,84,47,2,29.80,29.50,18,6,37,0.00
2013-5-15,82.9,67.4,51.3,47.1,42.6,36.1,72,44,21,29.94,29.68,15,5,27,0.00
2013-5-16,82.8,71.1,50.4,47.6,39.2,26.9,72,34,19,29.97,29.83,7,4,14,0.00
2013-5-17,70.2,62.2,56.5,56.4,45.1,25.7,90,57,24,30.06,29.97,8,5,17,0.00
2013-5-18,81.3,64.3,53.6,68.8,59.5,51.4,98,86,58,30.03,29.83,7,3,16,0.41
2013-5-19,87.1,68.4,59.4,70.3,64.0,58.8,98,88,50,29.85,29.65,9,3,22,0.50
2013-5-20,75.7,63.1,52.9,67.8,59.9,52.3,98,90,63,29.68,29.56,7,3,16,0.62
2013-5-21,53.2,49.3,45.1,52.2,48.2,44.3,98,96,86,29.77,29.59,6,4,14,0.46
2013-5-22,53.2,48.1,43.3,49.5,46.1,42.8,98,93,81,30.03,29.74,8,4,18,0.12
2013-5-23,66.2,51.7,41.0,44.0,35.1,27.4,92,57,33,30.33,30.03,9,4,16,0.00
2013-5-24,72.7,53.5,32.9,49.9,38.2,29.5,90,60,34,30.42,30.21,6,2,14,0.00
2013-5-25,71.2,60.0,52.5,54.6,50.2,45.9,96,72,47,30.27,30.24,7,3,17,0.05
2013-5-26,72.5,59.7,48.7,46.9,42.8,38.9,77,56,34,30.24,30.06,8,3,16,0.00
2013-5-27,62.4,58.3,53.2,56.3,50.1,44.4,89,74,63,30.09,29.88,6,4,14,0.00
2013-5-28,64.4,58.5,53.8,61.0,55.5,51.9,98,90,79,29.88,29.77,4,2,11,0.00
2013-5-29,81.9,67.2,57.6,69.6,61.8,57.0,98,85,53,29.85,29.68,6,2,12,0.00
2013-5-30,81.3,69.5,63.0,70.9,65.2,62.4,98,87,57,29.74,29.56,7,3,17,0.49
2013-5-31,80.4,67.4,58.3,65.3,59.9,53.7,98,80,46,29.59,29.53,8,3,25,0.38
2013-6-1,72.1,59.5,50.5,62.3,54.6,40.0,98,84,65,29.94,29.59,13,4,25,0.04
2013-6-2,67.6,56.0,47.5,44.5,41.2,38.2,84,60,38,30.09,29.94,9,4,19,0.00
2013-6-3,72.9,58.5,42.1,49.3,43.9,39.9,93,62,36,30.09,29.97,4,1,8,0.00
2013-6-4,70.2,58.3,52.0,56.0,48.2,39.5,98,70,51,30.12,30.03,9,3,19,0.25
2013-6-5,60.1,55.1,50.2,58.6,54.3,49.6,98,97,94,30.09,29.97,6,2,12,0.99
2013-6-6,57.6,52.3,48.0,54.3,50.6,47.5,98,94,83,30.06,29.97,5,3,11,0.00
2013-6-7,69.6,58.5,50.9,56.7,52.5,49.1,95,82,57,30.06,29.94,3,1,7,0.00
2013-6-8,75.7,64.2,53.1,59.5,55.5,52.5,98,76,50,29.94,29.91,4,2,11,0.00
2013-6-9,63.9,58.6,56.3,62.7,57.1,53.6,98,95,86,29.94,29.83,6,2,14,0.29
2013-6-10,75.4,64.2,57.6,65.3,60.5,56.8,98,89,64,29.88,29.83,4,1,8,0.00
2013-6-11,82.4,67.5,51.3,69.9,61.5,50.7,98,83,53,29.91,29.83,4,1,10,0.00
2013-6-12,78.8,69.1,60.8,68.1,59.3,47.2,94,73,47,29.94,29.80,7,3,14,0.00
2013-6-13,80.1,67.0,55.8,57.6,52.4,47.4,83,61,43,30.12,29.94,6,3,12,0.00
2013-6-14,81.5,66.6,50.4,64.3,57.1,48.3,95,73,49,30.09,29.88,6,2,16,0.00
2013-6-15,79.0,70.2,60.1,72.4,65.1,58.0,96,84,68,29.91,29.85,7,2,14,0.04
2013-6-16,85.6,71.5,56.7,58.8,52.5,48.5,96,56,29,29.91,29.83,13,4,28,0.00
2013-6-17,79.0,66.5,55.0,67.0,55.9,46.0,94,70,48,30.06,29.83,6,3,14,0.00
2013-6-18,79.2,62.0,46.2,59.4,51.1,42.4,95,70,45,30.12,30.03,4,2,9,0.00
2013-6-19,85.6,69.5,52.5,64.9,59.1,50.8,97,73,45,30.09,29.97,4,1,11,0.00
2013-6-20,87.1,74.5,61.9,73.2,66.8,60.1,96,79,57,30.00,29.91,5,2,11,0.00
2013-6-21,81.7,71.5,64.0,69.1,65.9,63.5,98,84,60,30.06,29.71,21,4,37,1.04
2013-6-22,81.3,71.2,64.9,72.8,68.2,64.2,98,91,71,30.00,29.85,7,2,13,0.21
2013-6-23,84.2,72.4,61.5,72.6,66.3,61.0,98,83,54,29.88,29.71,8,3,20,0.37
2013-6-24,86.9,73.8,59.2,73.5,67.6,58.6,98,83,56,29.91,29.80,5,1,11,0.00
2013-6-25,88.2,74.8,61.5,72.2,67.8,61.0,98,81,55,29.85,29.74,4,1,11,0.00
2013-6-26,91.4,78.2,68.5,80.3,71.2,66.1,98,81,50,29.80,29.68,10,2,17,0.29
2013-6-27,85.8,75.7,64.2,69.4,62.2,55.2,97,67,39,29.83,29.77,12,5,22,0.00
2013-6-28,77.9,68.8,62.4,68.5,62.7,58.3,98,81,57,29.80,29.77,15,6,28,0.13
2013-6-29,77.4,68.0,59.2,64.4,57.4,47.2,98,73,43,30.00,29.77,7,4,22,1.04
2013-6-30,84.6,68.7,53.8,58.8,54.5,50.5,95,65,35,30.12,30.00,7,2,17,0.00
2013-7-1,83.5,70.2,56.3,64.2,57.5,52.8,97,68,38,30.18,30.12,6,2,12,0.00
2013-7-2,82.9,68.6,53.6,56.8,53.3,48.6,87,61,38,30.18,30.06,5,2,11,0.00
2013-7-3,84.7,72.3,55.2,59.3,54.9,51.0,93,58,36,30.09,29.97,3,1,7,0.00
2013-7-4,89.6,72.5,55.2,68.3,60.1,53.6,97,69,38,29.97,29.85,5,1,11,0.00
2013-7-5,89.6,77.7,63.9,66.6,62.7,59.5,87,62,43,29.91,29.80,7,2,18,0.00
2013-7-6,87.1,77.0,67.8,75.6,67.9,62.3,87,74,49,29.88,29.83,5,1,12,0.00
2013-7-7,94.3,79.7,67.3,77.1,71.3,66.6,98,77,53,29.91,29.83,9,1,14,0.08
2013-7-8,83.8,67.7,57.4,72.6,64.2,56.8,98,89,67,30.03,29.91,6,2,10,0.00
2013-7-9,86.2,73.9,64.9,75.4,68.8,61.7,98,85,64,30.00,29.77,10,3,23,0.33
2013-7-10,79.0,69.9,59.9,62.7,57.6,53.6,93,68,43,30.06,29.91,9,5,18,0.00
2013-7-11,84.9,70.9,55.0,68.0,61.0,54.2,98,74,46,30.12,29.97,3,1,10,0.00
2013-7-12,89.2,76.7,64.9,69.1,63.5,58.6,88,65,46,30.03,29.88,6,3,18,0.00
2013-7-13,77.7,71.7,66.4,72.5,67.5,60.9,97,87,64,30.09,29.91,5,2,14,0.17
2013-7-14,88.2,74.9,67.6,72.7,68.2,63.5,95,81,52,30.18,30.06,5,1,9,0.00
2013-7-15,91.8,76.8,62.6,73.9,68.3,62.0,98,78,47,30.24,30.15,3,1,10,0.00
2013-7-16,94.8,81.9,68.9,76.9,71.7,67.7,98,75,47,30.21,30.15,7,2,14,0.00
2013-7-17,95.9,82.9,69.8,74.2,70.8,66.6,97,71,40,30.24,30.09,7,2,17,0.00
2013-7-18,97.5,85.3,72.5,75.6,71.9,69.2,94,68,43,30.12,29.74,8,4,20,0.00
2013-7-19,83.5,77.8,68.0,73.9,64.9,57.6,94,66,43,29.88,29.71,10,5,21,0.04
2013-7-20,79.0,69.5,62.4,64.9,58.3,51.5,98,70,43,30.00,29.85,5,2,10,0.00
2013-7-21,81.5,68.9,55.8,68.0,60.3,50.7,93,75,62,30.00,29.83,4,2,11,0.00
2013-7-22,86.9,73.7,65.5,74.3,64.2,52.4,97,75,43,29.85,29.68,12,4,22,0.00
2013-7-23,75.2,65.5,56.3,55.6,52.6,49.0,90,65,43,30.03,29.85,8,3,15,0.00
2013-7-24,78.1,64.9,52.9,61.1,56.2,50.9,96,76,47,30.09,29.97,4,1,8,0.00
2013-7-25,82.9,70.9,58.6,66.1,62.0,57.2,96,75,47,29.97,29.88,8,2,17,0.21
2013-7-26,68.2,61.6,50.9,63.0,53.9,45.7,93,76,62,30.09,29.91,15,6,25,0.46
2013-7-27,61.9,55.1,51.1,56.0,50.2,46.6,92,84,73,30.09,29.91,11,6,25,0.13
2013-7-28,70.7,60.0,50.5,56.5,50.8,47.2,94,73,53,30.06,29.94,8,4,19,0.00
2013-7-29,78.8,63.5,48.0,62.4,55.7,47.2,98,79,46,30.12,30.06,3,0,8,0.00
2013-7-30,73.6,65.6,60.1,66.5,63.2,59.5,98,92,77,30.12,30.06,2,0,8,0.08
2013-7-31,80.4,67.9,57.9,67.1,58.0,48.3,98,75,38,30.06,29.97,11,3,26,0.00
2013-8-1,81.5,67.8,55.6,60.2,55.2,51.9,90,67,41,30.03,29.85,7,3,14,0.00
2013-8-2,78.3,66.6,56.7,60.3,54.3,49.9,95,68,39,30.03,29.85,8,3,14,0.00
2013-8-3,77.0,64.2,50.0,58.4,50.3,43.2,96,65,33,30.21,30.03,9,3,16,0.00
2013-8-4,78.6,64.1,49.5,59.3,53.0,47.8,95,70,42,30.24,30.00,4,1,10,0.00
2013-8-5,70.2,64.3,56.7,66.6,62.5,52.7,98,94,84,30.00,29.77,6,1,11,0.00
2013-8-6,79.9,66.1,56.1,69.6,61.8,55.3,98,87,66,29.83,29.65,8,2,16,1.37
2013-8-7,75.6,65.0,54.5,61.5,54.8,47.8,98,74,42,30.00,29.74,8,4,14,0.00
2013-8-8,78.8,64.2,50.5,62.1,55.6,49.4,98,77,44,30.00,29.94,7,1,14,0.00
2013-8-9,74.7,65.0,54.3,61.0,54.3,48.7,98,72,43,30.09,29.94,10,4,19,0.00
2013-8-10,77.7,66.4,54.9,59.5,55.0,50.2,92,69,43,30.15,30.06,6,1,10,0.00
2013-8-11,79.9,66.3,52.3,64.6,57.2,50.7,97,76,45,30.06,29.97,4,1,10,0.00
2013-8-12,77.7,66.2,57.7,61.6,57.7,52.3,97,77,42,30.06,29.97,9,3,17,0.00
2013-8-13,75.2,62.3,50.0,57.8,50.8,46.3,98,70,37,30.18,30.06,6,2,12,0.00
2013-8-14,74.8,61.5,50.5,56.9,52.6,48.3,92,75,41,30.18,30.06,2,0,5,0.00
2013-8-15,81.9,65.5,51.3,63.2,55.9,49.6,97,74,42,30.09,30.03,5,1,11,0.00
2013-8-16,82.8,67.2,52.2,65.2,56.8,51.0,98,73,40,30.15,30.09,5,1,14,0.00
2013-8-17,83.7,66.9,50.9,63.2,54.9,49.5,98,70,40,30.18,30.06,6,2,17,0.00
2013-8-18,85.3,69.2,53.6,63.5,57.0,52.2,98,69,40,30.12,29.97,6,2,14,0.00
2013-8-19,90.0,75.2,64.9,71.0,65.7,59.3,91,74,50,29.97,29.85,5,2,12,0.00
2013-8-20,94.1,78.2,65.5,75.5,70.5,64.8,98,79,51,29.91,29.83,5,2,13,0.00
2013-8-21,90.1,77.0,65.5,78.4,70.3,60.3,98,81,48,30.00,29.83,6,2,11,0.00
2013-8-22,82.6,70.1,56.5,60.2,52.9,47.2,92,58,32,30.12,29.97,6,2,14,0.00
2013-8-23,87.1,68.1,48.9,64.2,56.6,46.7,95,71,40,30.15,30.00,4,1,10,0.00
2013-8-24,92.8,78.1,65.1,74.0,69.2,63.3,97,76,49,30.06,29.88,8,3,22,0.00
2013-8-25,99.3,85.6,75.9,75.9,73.3,71.3,86,69,42,29.97,29.88,7,3,16,0.00
2013-8-26,97.9,85.4,75.6,79.7,76.2,72.1,93,75,50,29.97,29.80,4,2,13,0.00
2013-8-27,90.3,79.5,69.8,78.7,74.1,68.3,97,85,61,29.91,29.77,6,2,12,0.00
2013-8-28,91.8,75.9,65.8,75.8,68.4,63.4,98,80,41,30.00,29.91,3,0,7,0.00
2013-8-29,97.0,79.6,65.3,79.5,71.1,63.9,98,78,44,30.00,29.83,5,1,12,0.00
2013-8-30,83.8,74.9,63.3,72.2,65.8,59.2,96,75,53,29.94,29.80,8,3,17,0.00
2013-8-31,91.4,72.3,56.8,70.5,63.5,55.9,98,77,44,29.88,29.71,11,2,23,0.00
2013-9-1,73.8,67.9,59.7,64.4,60.2,51.9,97,77,58,29.97,29.71,11,5,20,0.00
2013-9-2,68.2,59.5,48.4,53.5,50.4,45.8,91,73,52,30.09,29.97,8,3,14,0.00
2013-9-3,77.7,60.2,41.2,58.9,51.1,39.6,98,76,43,30.06,29.94,5,1,13,0.00
2013-9-4,80.6,66.9,55.4,66.2,59.1,53.7,97,78,48,30.15,29.97,6,1,14,0.00
2013-9-5,83.3,65.3,49.6,58.5,54.3,48.2,97,72,40,30.21,30.09,4,1,9,0.00
2013-9-6,94.8,77.6,62.1,71.6,64.7,57.7,98,69,35,30.09,29.85,7,2,16,0.00
2013-9-7,91.2,76.7,64.6,72.3,65.8,59.1,95,71,45,30.03,29.83,6,2,14,0.00
2013-9-8,68.5,62.4,59.4,61.1,57.8,51.4,98,86,55,30.06,29.88,5,1,12,0.62
2013-9-9,87.3,71.9,61.0,78.0,69.6,60.4,98,93,71,29.88,29.62,6,1,14,0.08
2013-9-10,83.5,72.7,64.8,72.8,66.2,58.7,98,82,46,29.94,29.74,7,3,16,0.00
2013-9-11,80.8,69.7,59.9,65.0,57.8,50.7,98,70,36,30.03,29.94,10,3,22,0.00
2013-9-12,70.5,61.0,52.0,56.5,49.4,42.3,97,68,43,30.21,30.03,11,5,22,0.00
2013-9-13,70.2,56.6,41.4,52.6,45.5,39.8,97,69,43,30.24,30.06,3,1,8,0.00
2013-9-14,72.7,56.3,43.7,57.6,49.7,42.4,98,82,45,30.06,29.91,5,1,12,0.88
2013-9-15,62.8,56.7,43.5,59.9,53.4,42.2,98,89,64,30.30,29.88,7,2,14,0.12
2013-9-16,66.2,49.4,36.9,49.0,40.9,36.3,98,77,43,30.39,30.21,4,1,9,0.00
2013-9-17,71.6,54.5,39.2,57.1,48.5,37.3,98,82,54,30.21,29.94,6,2,16,0.00
2013-9-18,71.1,64.8,57.9,69.4,64.0,57.1,98,97,94,29.94,29.71,3,1,11,0.04
2013-9-19,76.3,68.4,61.7,74.1,66.9,61.1,98,95,77,29.74,29.59,16,2,36,1.51
2013-9-20,64.9,58.7,49.6,62.0,54.2,45.2,98,86,49,29.88,29.74,10,5,19,0.08
2013-9-21,62.2,52.7,42.3,48.4,45.0,40.4,97,77,50,29.97,29.88,6,2,11,0.00
2013-9-22,70.2,53.5,36.9,53.3,46.7,36.1,98,80,52,29.97,29.85,6,2,13,0.00
2013-9-23,73.0,59.3,49.8,55.8,51.6,48.9,97,78,49,29.94,29.85,6,2,16,0.00
2013-9-24,74.7,58.1,46.2,57.1,51.4,45.3,98,81,47,29.97,29.88,4,1,11,0.00
2013-9-25,74.1,57.2,43.7,60.0,50.5,42.9,98,81,50,29.94,29.85,4,1,12,0.00
2013-9-26,78.1,63.3,48.2,61.6,55.9,46.3,98,79,53,29.94,29.83,7,3,18,0.00
2013-9-27,80.8,69.7,60.8,66.4,61.8,58.3,93,77,54,29.91,29.80,8,3,25,0.00
2013-9-28,70.3,61.1,45.0,64.1,55.6,43.6,97,83,70,29.88,29.59,13,4,26,0.25
2013-9-29,72.5,56.1,41.4,55.0,47.9,40.8,98,77,44,29.91,29.74,4,1,11,0.00
2013-9-30,77.2,64.2,54.5,54.6,51.2,47.1,78,64,45,29.77,29.59,7,2,17,0.00
2013-10-1,73.2,62.1,48.4,54.8,45.7,36.1,84,58,28,29.94,29.53,10,4,22,0.00
2013-10-2,75.6,54.9,37.8,54.3,44.2,34.8,98,73,32,30.00,29.85,12,2,20,0.41
2013-10-3,57.7,55.2,53.8,57.2,54.6,53.2,98,98,98,29.94,29.85,6,3,14,0.21
2013-10-4,59.4,55.8,54.3,56.1,54.4,53.5,98,95,82,30.00,29.85,6,4,14,0.13
2013-10-5,60.1,56.0,53.2,59.5,55.5,52.7,98,98,98,29.88,29.71,7,3,14,0.74
2013-10-6,54.1,50.2,41.4,53.0,48.9,40.8,98,95,83,29.80,29.65,10,3,17,0.00
2013-10-7,64.9,49.9,38.3,49.5,42.1,37.8,98,79,41,29.94,29.77,8,2,18,0.00
2013-10-8,75.7,57.5,40.1,52.3,45.5,39.1,98,69,40,29.94,29.77,8,3,20,0.00
2013-10-9,74.8,60.5,48.7,55.0,49.8,45.7,91,70,46,30.00,29.85,6,2,13,0.00
2013-10-10,75.4,58.6,45.1,55.2,49.4,44.3,98,75,44,30.00,29.85,6,2,14,0.00
2013-10-11,75.6,66.9,54.1,57.2,52.6,49.6,85,62,46,29.88,29.59,12,6,27,0.00
2013-10-12,61.9,52.1,43.7,59.1,45.5,40.0,93,79,57,30.09,29.65,9,5,23,0.00
2013-10-13,59.5,46.6,37.6,43.4,37.7,33.8,98,75,42,30.36,30.09,7,2,12,0.00
2013-10-14,55.9,45.3,34.5,46.9,38.6,32.2,95,79,53,30.36,29.97,6,2,12,0.13
2013-10-15,51.1,49.0,47.3,50.5,48.4,46.8,98,98,94,30.00,29.65,11,5,25,1.24
2013-10-16,54.9,45.6,34.3,46.9,39.2,32.0,98,80,48,29.91,29.80,9,4,17,0.00
2013-10-17,57.7,44.8,34.0,47.1,40.8,31.8,98,88,52,29.83,29.74,9,2,22,0.04
2013-10-18,54.1,43.7,37.9,42.2,36.5,29.7,98,79,42,29.91,29.77,9,4,17,0.17
2013-10-19,48.0,40.6,34.0,39.9,35.3,28.3,97,83,47,29.77,29.65,8,3,15,0.00
2013-10-20,35.6,33.8,30.2,34.9,32.9,28.3,98,96,92,29.80,29.62,8,2,15,0.24
2013-10-21,39.4,35.1,30.9,34.7,22.9,18.3,98,62,50,29.88,29.80,12,7,24,0.00
2013-10-22,42.1,35.1,28.6,31.6,27.2,23.1,88,74,55,29.97,29.88,6,2,12,0.00
2013-10-23,33.8,32.6,30.9,31.5,29.5,27.6,91,88,79,29.97,29.91,4,3,7,0.00
2013-10-24,39.0,33.4,32.5,29.7,29.2,25.6,89,85,59,30.21,29.94,5,3,8,0.00
2013-10-25,54.1,43.7,30.2,41.8,32.5,26.2,88,66,50,30.24,29.71,9,5,19,0.00
2013-10-26,50.4,42.7,38.5,39.0,28.7,25.2,68,58,49,30.03,29.71,13,6,26,0.00
2013-10-27,54.9,41.4,28.8,34.5,28.2,23.4,84,61,43,30.12,29.77,11,4,22,0.00
2013-10-28,42.4,35.0,28.2,29.4,22.1,17.9,79,60,40,30.42,30.12,8,4,15,0.00
2013-10-29,38.8,34.2,27.1,34.9,28.2,22.0,94,79,56,30.36,30.06,5,2,10,0.00
2013-10-30,48.0,42.7,36.7,47.5,42.1,35.1,98,98,94,30.06,29.65,4,1,6,0.04
2013-10-31,48.0,44.3,40.3,47.5,43.8,39.8,98,98,97,29.65,29.35,8,4,15,0.09
2013-11-1,48.9,41.9,37.0,41.0,36.4,29.9,98,82,60,29.80,29.35,10,5,19,0.00
2013-11-2,48.6,38.6,27.1,34.8,28.4,22.5,84,68,47,30.06,29.80,10,4,15,0.00
2013-11-3,55.4,40.8,27.5,37.2,30.3,23.6,93,69,47,30.06,29.85,11,5,22,0.00
2013-11-4,47.7,43.8,31.1,45.6,36.0,29.0,95,75,55,30.09,29.77,10,4,22,0.08
2013-11-5,45.1,34.0,24.8,36.8,29.3,22.5,98,84,52,30.18,30.00,6,2,12,0.25
2013-11-6,40.6,32.8,28.9,32.8,27.3,22.3,98,82,50,30.09,29.97,9,4,16,0.21
2013-11-7,40.1,30.5,21.6,29.4,24.2,18.8,91,79,52,30.15,30.09,8,2,15,0.00
2013-11-8,39.7,31.5,20.1,37.2,26.0,17.1,93,81,58,30.12,29.56,9,3,21,0.08
2013-11-9,42.4,39.9,37.8,39.9,31.9,23.5,98,74,53,30.12,29.56,16,9,32,0.00
2013-11-10,43.3,37.6,28.9,30.1,26.4,20.7,77,64,53,30.24,30.03,12,5,21,0.00
2013-11-11,36.3,23.0,13.8,29.6,8.2,1.5,78,53,43,30.62,30.06,13,9,29,0.00
2013-11-12,29.5,19.7,11.7,9.2,5.5,-0.3,70,54,42,30.68,30.36,8,4,14,0.00
2013-11-13,48.9,32.6,17.6,31.4,20.5,6.6,78,62,46,30.36,29.80,9,4,19,0.00
2013-11-14,50.2,39.4,28.8,36.6,31.8,25.1,88,75,55,29.80,29.71,5,2,9,0.00
2013-11-15,54.3,37.5,25.7,41.0,32.2,23.4,97,82,53,29.80,29.62,7,2,12,0.00
2013-11-16,46.6,42.9,35.2,45.3,41.1,33.1,98,93,83,29.62,29.26,6,3,18,0.16
2013-11-17,44.4,39.7,30.4,43.2,35.3,20.9,98,85,66,29.74,29.26,15,8,29,0.00
2013-11-18,32.0,26.4,16.5,21.1,16.3,11.4,82,66,55,30.21,29.74,15,7,28,0.00
2013-11-19,43.3,30.1,14.4,27.0,19.8,9.6,90,67,50,30.21,29.85,10,5,20,0.00
2013-11-20,47.3,42.3,36.7,32.6,27.3,23.9,85,56,45,30.00,29.85,8,5,19,0.00
2013-11-21,37.2,31.4,23.0,36.7,23.7,9.6,98,74,53,30.44,30.00,13,6,26,0.00
2013-11-22,33.4,21.9,11.3,13.5,7.4,-2.5,76,55,25,30.53,30.36,14,7,26,0.00
2013-11-23,18.1,11.0,4.1,1.3,-4.5,-12.6,53,49,44,30.74,30.53,13,6,24,0.00
2013-11-24,31.8,19.4,3.4,13.8,2.7,-13.2,63,48,43,30.62,29.88,11,6,26,0.00
2013-11-25,40.3,33.5,28.9,26.8,19.8,12.3,77,57,49,30.03,29.80,14,8,28,0.00
2013-11-26,28.9,19.4,11.1,15.0,4.1,-1.9,62,51,45,30.33,30.00,19,10,32,0.00
2013-11-27,24.4,16.7,4.8,10.3,2.9,-7.8,69,54,50,30.33,30.03,5,3,11,0.00
2013-11-28,27.0,20.8,8.1,11.2,6.3,-4.0,57,53,48,30.44,30.03,11,4,19,0.00
2013-11-29,31.8,21.0,5.5,17.1,8.1,-6.4,75,57,51,30.44,30.09,9,3,26,0.00
2013-11-30,39.2,29.5,21.6,25.6,19.5,12.8,78,67,54,30.12,29.97,5,2,9,0.00
2013-12-1,35.6,24.0,13.6,25.6,17.5,8.3,84,76,63,30.15,29.88,3,1,5,0.00
2013-12-2,36.5,31.1,23.5,33.3,28.4,18.9,98,90,82,29.88,29.59,6,3,11,0.05
2013-12-3,34.9,33.6,30.2,34.4,33.0,27.3,98,97,89,29.80,29.59,7,4,12,0.12
2013-12-4,30.4,27.7,18.5,28.8,25.5,13.9,97,91,78,29.80,29.44,16,6,30,0.00
2013-12-5,18.1,5.8,-2.7,13.3,-1.2,-9.5,81,72,72,30.24,29.59,15,10,30,0.00
2013-12-6,3.2,-4.1,-10.3,-3.8,-10.8,-16.8,72,72,72,30.53,30.24,11,6,18,0.00
2013-12-7,0.7,-10.1,-17.7,-6.2,-16.7,-24.0,72,72,72,30.62,30.48,7,3,13,0.00
2013-12-8,13.8,1.8,-16.4,6.5,-5.2,-22.8,72,72,72,30.50,29.97,5,2,8,0.00
2013-12-9,6.4,-2.7,-11.7,-0.7,-9.5,-18.2,72,72,72,30.03,29.85,14,5,28,0.00
2013-12-10,6.8,0.9,-6.0,-0.3,-6.0,-12.7,72,72,72,30.21,29.74,11,5,21,0.00
2013-12-11,0.7,-5.3,-12.3,-6.2,-12.0,-18.8,72,72,72,30.48,30.21,10,5,16,0.00
2013-12-12,17.2,7.0,-7.1,6.5,-2.0,-13.7,72,66,54,30.24,30.12,6,2,11,0.00
2013-12-13,14.2,10.5,7.9,3.9,0.3,-2.1,63,63,62,30.27,30.12,7,4,16,0.00
2013-12-14,17.8,9.2,-0.6,5.9,-1.8,-11.8,64,60,57,30.27,30.03,10,4,17,0.00
2013-12-15,-0.6,-4.6,-13.2,-11.8,-15.7,-23.8,58,58,58,30.12,30.03,10,4,17,0.00
2013-12-16,16.7,6.7,-4.9,12.4,-3.7,-15.9,83,62,58,30.09,29.83,6,3,14,0.00
2013-12-17,30.6,20.9,-1.7,27.4,10.6,-14.3,95,65,51,30.06,29.80,15,8,26,0.00
2013-12-18,32.5,17.9,-0.9,19.0,7.5,-13.6,91,64,54,30.03,29.62,8,3,16,0.00
2013-12-19,21.7,16.0,12.2,18.8,7.0,1.7,89,68,55,30.06,29.77,10,6,19,0.00
2013-12-20,20.7,12.8,6.3,8.8,5.0,0.9,78,71,58,30.03,29.83,6,3,12,0.00
2013-12-21,23.7,17.1,11.1,12.6,9.5,5.3,78,72,60,30.00,29.83,6,3,12,0.00
2013-12-22,21.0,16.7,9.7,14.7,10.6,4.5,83,77,63,30.15,29.91,9,6,14,0.00
2013-12-23,9.7,0.9,-13.0,4.5,-4.1,-17.7,79,79,79,30.44,30.15,11,6,19,0.00
2013-12-24,10.2,-2.6,-21.1,5.0,-7.6,-25.6,79,79,79,30.42,30.09,6,3,14,0.00
2013-12-25,22.5,14.9,9.3,15.2,7.5,1.3,79,72,60,30.09,30.00,11,4,19,0.00
2013-12-26,24.1,17.1,9.7,13.8,8.0,-0.7,77,67,61,30.12,30.03,3,1,5,0.00
2013-12-27,38.5,25.0,4.8,30.1,19.5,-0.8,94,80,63,30.12,29.83,7,3,16,0.08
2013-12-28,40.5,28.6,15.8,33.5,25.8,7.7,98,89,70,30.00,29.65,16,5,30,0.13
2013-12-29,15.6,-3.7,-23.1,7.6,-11.4,-30.0,70,69,69,30.27,30.00,14,7,27,0.00
2013-12-30,1.0,-11.3,-24.2,-6.8,-18.6,-31.0,69,69,69,30.24,30.15,4,1,6,0.00
2013-12-31,-3.6,-10.3,-16.6,-11.3,-17.7,-23.7,69,69,69,30.39,30.12,6,2,9,0.00
2014-1-1,0.5,-5.1,-12.3,-7.3,-12.7,-19.6,69,69,69,30.44,30.36,5,4,9,0.00
2014-1-2,0.0,-11.2,-22.7,-7.8,-18.6,-29.6,69,69,69,30.44,30.30,6,2,10,0.00